| time (UTC) | temp F | wind direction | speed MPH | gust MPH | rain 1hr in | rain 24hr in | rain mn in | humidity % | barometer mb |
| 20260509182237 | 71 | 244 | 0.0 | 1.0 | 0.00 | 0.00 | 0.00 | 71 | 1007.0 |
| 20260509181734 | 71 | 248 | 0.0 | 1.0 | 0.00 | 0.00 | 0.00 | 71 | 1006.7 |
| 20260509181232 | 70 | 267 | 1.0 | 1.0 | 0.00 | 0.00 | 0.00 | 72 | 1006.9 |
| 20260509180729 | 70 | 238 | 0.0 | 0.0 | 0.00 | 0.00 | 0.00 | 73 | 1007.1 |
| 20260509180225 | 69 | 238 | 0.0 | 0.0 | 0.00 | 0.00 | 0.00 | 73 | 1007.2 |
| 20260509175722 | 69 | 270 | 0.0 | 1.0 | 0.00 | 0.00 | 0.00 | 72 | 1007.2 |
| 20260509175218 | 70 | 250 | 1.0 | 1.0 | 0.00 | 0.00 | 0.00 | 73 | 1007.2 |
| 20260509174714 | 69 | 236 | 1.0 | 1.0 | 0.00 | 0.00 | 0.00 | 74 | 1007.3 |
| 20260509174209 | 69 | 255 | 1.0 | 1.0 | 0.00 | 0.00 | 0.00 | 73 | 1007.1 |
| 20260509173706 | 69 | 259 | 1.0 | 1.0 | 0.00 | 0.00 | 0.00 | 71 | 1007.4 |
| 20260509173201 | 69 | 258 | 2.0 | 2.0 | 0.00 | 0.00 | 0.00 | 71 | 1007.6 |
| 20260509172658 | 69 | 219 | 2.0 | 2.0 | 0.00 | 0.00 | 0.00 | 72 | 1007.1 |
| 20260509172154 | 70 | 253 | 1.0 | 2.0 | 0.00 | 0.00 | 0.00 | 71 | 1007.3 |
| 20260509171649 | 69 | 242 | 0.0 | 1.0 | 0.00 | 0.00 | 0.00 | 70 | 1007.6 |
| 20260509171146 | 69 | 257 | 1.0 | 1.0 | 0.00 | 0.00 | 0.00 | 70 | 1007.6 |
| 20260509170643 | 69 | 232 | 3.0 | 3.0 | 0.00 | 0.00 | 0.00 | 71 | 1007.6 |
| 20260509170139 | 69 | 280 | 1.0 | 1.0 | 0.00 | 0.00 | 0.00 | 71 | 1007.7 |
| 20260509165637 | 69 | 225 | 2.0 | 2.0 | 0.00 | 0.00 | 0.00 | 70 | 1007.7 |
| 20260509165133 | 70 | 262 | 1.0 | 2.0 | 0.00 | 0.00 | 0.00 | 70 | 1007.9 |
| 20260509164629 | 69 | 230 | 1.0 | 1.0 | 0.00 | 0.00 | 0.00 | 72 | 1007.6 |
| 20260509164126 | 69 | 242 | 1.0 | 1.0 | 0.00 | 0.00 | 0.00 | 72 | 1007.6 |
| 20260509163623 | 69 | 246 | 2.0 | 2.0 | 0.00 | 0.00 | 0.00 | 70 | 1008.0 |
| 20260509163118 | 71 | 223 | 3.0 | 3.0 | 0.00 | 0.00 | 0.00 | 69 | 1007.9 |
| 20260509162616 | 71 | 128 | 1.0 | 2.0 | 0.00 | 0.00 | 0.00 | 69 | 1007.8 |
| 20260509162112 | 71 | 282 | 2.0 | 2.0 | 0.00 | 0.00 | 0.00 | 70 | 1008.1 |
| 20260509161609 | 70 | 244 | 1.0 | 1.0 | 0.00 | 0.00 | 0.00 | 71 | 1008.2 |
| 20260509161109 | 71 | 253 | 1.0 | 1.0 | 0.00 | 0.00 | 0.00 | 70 | 1008.3 |
| 20260509160605 | 71 | 267 | 2.0 | 2.0 | 0.00 | 0.00 | 0.00 | 69 | 1008.3 |
| 20260509160100 | 70 | 242 | 0.0 | 1.0 | 0.00 | 0.00 | 0.00 | 70 | 1008.2 |
| 20260509155557 | 70 | 136 | 1.0 | 2.0 | 0.00 | 0.00 | 0.00 | 71 | 1008.4 |
| 20260509155053 | 70 | 240 | 1.0 | 1.0 | 0.00 | 0.00 | 0.00 | 72 | 1008.1 |
| 20260509154549 | 70 | 248 | 1.0 | 1.0 | 0.00 | 0.00 | 0.00 | 71 | 1008.1 |
| 20260509154047 | 70 | 280 | 0.0 | 1.0 | 0.00 | 0.00 | 0.00 | 72 | 1008.1 |
| 20260509153544 | 70 | 171 | 1.0 | 1.0 | 0.00 | 0.00 | 0.00 | 69 | 1008.2 |
| 20260509153040 | 71 | 85 | 2.0 | 2.0 | 0.00 | 0.00 | 0.00 | 71 | 1007.9 |
| 20260509152536 | 69 | 278 | 1.0 | 2.0 | 0.00 | 0.00 | 0.00 | 74 | 1007.9 |
| 20260509152034 | 69 | 146 | 1.0 | 2.0 | 0.00 | 0.00 | 0.00 | 71 | 1007.9 |
| 20260509151530 | 68 | 291 | 1.0 | 1.0 | 0.00 | 0.00 | 0.00 | 76 | 1008.0 |
| 20260509151028 | 69 | 245 | 1.0 | 1.0 | 0.00 | 0.00 | 0.00 | 74 | 1008.2 |
| 20260509150525 | 70 | 225 | 2.0 | 3.0 | 0.00 | 0.00 | 0.00 | 74 | 1008.0 |
| 20260509150024 | 70 | 142 | 3.0 | 5.0 | 0.00 | 0.00 | 0.00 | 71 | 1008.2 |
| 20260509145518 | 70 | 212 | 1.0 | 2.0 | 0.00 | 0.00 | 0.00 | 73 | 1007.9 |
| 20260509145014 | 69 | 220 | 1.0 | 1.0 | 0.00 | 0.00 | 0.00 | 75 | 1008.4 |
| 20260509144511 | 68 | 196 | 1.0 | 1.0 | 0.00 | 0.00 | 0.00 | 76 | 1008.3 |
| 20260509144008 | 66 | 133 | 0.0 | 1.0 | 0.00 | 0.00 | 0.00 | 80 | 1008.4 |
| 20260509143505 | 65 | 260 | 0.0 | 0.0 | 0.00 | 0.00 | 0.00 | 82 | 1008.3 |
| 20260509143003 | 65 | 260 | 1.0 | 1.0 | 0.00 | 0.00 | 0.00 | 81 | 1008.2 |
| 20260509142458 | 66 | 258 | 0.0 | 0.0 | 0.00 | 0.00 | 0.00 | 81 | 1008.3 |
| 20260509141954 | 65 | 244 | 1.0 | 1.0 | 0.00 | 0.00 | 0.00 | 82 | 1008.2 |
| 20260509141450 | 65 | 231 | 1.0 | 1.0 | 0.00 | 0.00 | 0.00 | 82 | 1008.3 |
| 20260509140948 | 65 | 260 | 1.0 | 1.0 | 0.00 | 0.00 | 0.00 | 82 | 1008.3 |
| 20260509140443 | 66 | 155 | 2.0 | 3.0 | 0.00 | 0.00 | 0.00 | 81 | 1008.5 |
| 20260509135942 | 65 | 247 | 1.0 | 1.0 | 0.00 | 0.00 | 0.00 | 82 | 1008.6 |
| 20260509135439 | 66 | 229 | 1.0 | 1.0 | 0.00 | 0.00 | 0.00 | 82 | 1008.5 |
| 20260509134936 | 65 | 189 | 1.0 | 1.0 | 0.00 | 0.00 | 0.00 | 82 | 1008.5 |
| 20260509134434 | 64 | 242 | 1.0 | 1.0 | 0.00 | 0.00 | 0.00 | 83 | 1008.4 |
| 20260509133931 | 63 | 227 | 0.0 | 1.0 | 0.00 | 0.00 | 0.00 | 85 | 1008.6 |
| 20260509133427 | 63 | 267 | 1.0 | 1.0 | 0.00 | 0.00 | 0.00 | 84 | 1008.8 |
| 20260509132926 | 62 | 137 | 0.0 | 1.0 | 0.00 | 0.00 | 0.00 | 86 | 1008.6 |
| 20260509132424 | 61 | 231 | 1.0 | 1.0 | 0.00 | 0.00 | 0.00 | 87 | 1009.0 |
| 20260509131920 | 60 | 229 | 0.0 | 0.0 | 0.00 | 0.00 | 0.00 | 88 | 1009.1 |
| 20260509131418 | 60 | 236 | 0.0 | 0.0 | 0.00 | 0.00 | 0.00 | 89 | 1009.2 |
| 20260509130914 | 60 | 244 | 0.0 | 0.0 | 0.00 | 0.00 | 0.00 | 89 | 1009.3 |
| 20260509130409 | 60 | 267 | 1.0 | 1.0 | 0.00 | 0.00 | 0.00 | 89 | 1009.4 |
| 20260509125907 | 59 | 235 | 1.0 | 1.0 | 0.00 | 0.00 | 0.00 | 89 | 1009.7 |
| 20260509125403 | 59 | 313 | 0.0 | 0.0 | 0.00 | 0.00 | 0.00 | 90 | 1009.7 |
| 20260509124859 | 58 | 313 | 0.0 | 0.0 | 0.00 | 0.00 | 0.00 | 92 | 1009.6 |
| 20260509124356 | 57 | 317 | 0.0 | 1.0 | 0.00 | 0.00 | 0.00 | 93 | 1009.6 |
| 20260509123854 | 56 | 251 | 0.0 | 0.0 | 0.00 | 0.00 | 0.00 | 94 | 1009.5 |
| 20260509123351 | 56 | 261 | 0.0 | 0.0 | 0.00 | 0.00 | 0.00 | 95 | 1009.6 |
| 20260509122847 | 55 | 260 | 0.0 | 0.0 | 0.00 | 0.00 | 0.00 | 97 | 1009.7 |
| 20260509122344 | 54 | 260 | 0.0 | 0.0 | 0.00 | 0.00 | 0.00 | 97 | 1009.6 |
| 20260509121841 | 54 | 260 | 0.0 | 1.0 | 0.00 | 0.00 | 0.00 | 98 | 1009.4 |
| 20260509121338 | 53 | 260 | 0.0 | 1.0 | 0.00 | 0.00 | 0.00 | 99 | 1009.3 |
| 20260509120836 | 53 | 290 | 0.0 | 0.0 | 0.00 | 0.00 | 0.00 | 99 | 1009.2 |
| 20260509120334 | 52 | 293 | 0.0 | 0.0 | 0.00 | 0.00 | 0.00 | 99 | 1009.2 |
| 20260509115832 | 52 | 257 | 0.0 | 0.0 | 0.00 | 0.00 | 0.00 | 99 | 1009.2 |
| 20260509115328 | 51 | 257 | 0.0 | 0.0 | 0.00 | 0.00 | 0.00 | 99 | 1009.1 |
| 20260509114826 | 51 | 257 | 0.0 | 0.0 | 0.00 | 0.00 | 0.00 | 99 | 1009.1 |
| 20260509114325 | 51 | 264 | 0.0 | 1.0 | 0.00 | 0.00 | 0.00 | 99 | 1009.1 |
| 20260509113824 | 51 | 310 | 0.0 | 0.0 | 0.00 | 0.00 | 0.00 | 99 | 1009.2 |
| 20260509113320 | 50 | 310 | 0.0 | 0.0 | 0.00 | 0.00 | 0.00 | 99 | 1009.3 |
| 20260509112817 | 49 | 310 | 0.0 | 0.0 | 0.00 | 0.00 | 0.00 | 99 | 1009.2 |
| 20260509112314 | 49 | 310 | 0.0 | 0.0 | 0.00 | 0.00 | 0.00 | 99 | 1009.4 |
| 20260509111811 | 48 | 310 | 0.0 | 0.0 | 0.00 | 0.00 | 0.00 | 99 | 1008.9 |
| 20260509111308 | 48 | 310 | 0.0 | 0.0 | 0.00 | 0.00 | 0.00 | 99 | 1009.1 |
| 20260509110806 | 48 | 310 | 0.0 | 0.0 | 0.00 | 0.00 | 0.00 | 99 | 1009.1 |
| 20260509110302 | 47 | 310 | 0.0 | 0.0 | 0.00 | 0.00 | 0.00 | 99 | 1009.0 |
| 20260509105800 | 47 | 310 | 0.0 | 0.0 | 0.00 | 0.00 | 0.00 | 99 | 1009.0 |
| 20260509105258 | 47 | 310 | 0.0 | 0.0 | 0.00 | 0.00 | 0.00 | 99 | 1009.0 |
| 20260509104754 | 47 | 310 | 0.0 | 0.0 | 0.00 | 0.00 | 0.00 | 99 | 1008.9 |
| 20260509104251 | 46 | 310 | 0.0 | 0.0 | 0.00 | 0.00 | 0.00 | 99 | 1009.0 |
| 20260509103749 | 46 | 310 | 0.0 | 0.0 | 0.00 | 0.00 | 0.00 | 99 | 1009.2 |
| 20260509103246 | 46 | 310 | 0.0 | 0.0 | 0.00 | 0.00 | 0.00 | 99 | 1009.0 |
| 20260509102744 | 46 | 310 | 0.0 | 0.0 | 0.00 | 0.00 | 0.00 | 99 | 1008.9 |
| 20260509102241 | 46 | 310 | 0.0 | 0.0 | 0.00 | 0.00 | 0.00 | 99 | 1008.6 |
| 20260509101737 | 46 | 311 | 0.0 | 0.0 | 0.00 | 0.00 | 0.00 | 99 | 1008.6 |
| 20260509101233 | 46 | 310 | 0.0 | 0.0 | 0.00 | 0.00 | 0.00 | 99 | 1008.7 |
| 20260509100731 | 46 | 311 | 0.0 | 0.0 | 0.00 | 0.00 | 0.00 | 99 | 1008.6 |
| 20260509100228 | 46 | 310 | 0.0 | 0.0 | 0.00 | 0.00 | 0.00 | 99 | 1008.6 |
| 20260509095725 | 46 | 310 | 0.0 | 0.0 | 0.00 | 0.00 | 0.00 | 99 | 1008.5 |
| 20260509095222 | 46 | 311 | 0.0 | 0.0 | 0.00 | 0.00 | 0.00 | 99 | 1008.6 |
| 20260509094719 | 46 | 311 | 0.0 | 0.0 | 0.00 | 0.00 | 0.00 | 99 | 1008.3 |
| 20260509094216 | 47 | 311 | 0.0 | 0.0 | 0.00 | 0.00 | 0.00 | 99 | 1008.6 |
| 20260509093714 | 47 | 311 | 0.0 | 0.0 | 0.00 | 0.00 | 0.00 | 99 | 1008.4 |
| 20260509093211 | 47 | 311 | 0.0 | 0.0 | 0.00 | 0.00 | 0.00 | 99 | 1008.4 |
| 20260509092709 | 47 | 310 | 0.0 | 0.0 | 0.00 | 0.00 | 0.00 | 99 | 1008.4 |
| 20260509092207 | 47 | 310 | 0.0 | 0.0 | 0.00 | 0.00 | 0.00 | 99 | 1008.4 |
| 20260509091705 | 47 | 310 | 0.0 | 0.0 | 0.00 | 0.00 | 0.00 | 99 | 1008.5 |
| 20260509091200 | 47 | 310 | 0.0 | 0.0 | 0.00 | 0.00 | 0.00 | 99 | 1008.6 |
| 20260509090659 | 48 | 311 | 0.0 | 0.0 | 0.00 | 0.00 | 0.00 | 99 | 1008.9 |
| 20260509090155 | 48 | 310 | 0.0 | 0.0 | 0.00 | 0.00 | 0.00 | 99 | 1009.0 |
| 20260509085653 | 48 | 311 | 0.0 | 0.0 | 0.00 | 0.00 | 0.00 | 99 | 1008.8 |
| 20260509085149 | 48 | 311 | 0.0 | 0.0 | 0.00 | 0.00 | 0.00 | 99 | 1009.0 |
| 20260509084646 | 48 | 310 | 0.0 | 0.0 | 0.00 | 0.00 | 0.00 | 99 | 1008.7 |
| 20260509084143 | 48 | 311 | 0.0 | 0.0 | 0.00 | 0.00 | 0.00 | 99 | 1008.7 |
| 20260509083641 | 48 | 312 | 0.0 | 1.0 | 0.00 | 0.00 | 0.00 | 99 | 1008.8 |
| 20260509083137 | 48 | 313 | 1.0 | 1.0 | 0.00 | 0.00 | 0.00 | 99 | 1008.6 |
| 20260509082634 | 48 | 303 | 0.0 | 0.0 | 0.00 | 0.00 | 0.00 | 99 | 1008.6 |
| 20260509082131 | 48 | 303 | 0.0 | 0.0 | 0.00 | 0.00 | 0.00 | 98 | 1008.6 |
| 20260509081628 | 48 | 303 | 0.0 | 0.0 | 0.00 | 0.00 | 0.00 | 98 | 1008.7 |
| 20260509081125 | 48 | 303 | 0.0 | 0.0 | 0.00 | 0.00 | 0.00 | 98 | 1008.8 |
| 20260509080623 | 49 | 302 | 0.0 | 0.0 | 0.00 | 0.00 | 0.00 | 98 | 1008.8 |
| 20260509080121 | 49 | 302 | 0.0 | 0.0 | 0.00 | 0.00 | 0.00 | 98 | 1008.8 |
| 20260509075619 | 49 | 302 | 0.0 | 0.0 | 0.00 | 0.00 | 0.00 | 98 | 1008.6 |
| 20260509075116 | 49 | 302 | 0.0 | 0.0 | 0.00 | 0.00 | 0.00 | 98 | 1008.9 |
| 20260509074613 | 49 | 302 | 0.0 | 0.0 | 0.00 | 0.00 | 0.00 | 98 | 1008.9 |
| 20260509074109 | 49 | 302 | 0.0 | 0.0 | 0.00 | 0.00 | 0.00 | 98 | 1008.8 |
| 20260509073606 | 49 | 302 | 0.0 | 0.0 | 0.00 | 0.00 | 0.00 | 98 | 1009.1 |
| 20260509073102 | 49 | 302 | 0.0 | 0.0 | 0.00 | 0.00 | 0.00 | 98 | 1009.0 |
| 20260509072559 | 49 | 302 | 0.0 | 0.0 | 0.00 | 0.00 | 0.00 | 98 | 1009.4 |
| 20260509072056 | 49 | 302 | 0.0 | 0.0 | 0.00 | 0.00 | 0.00 | 98 | 1009.4 |
| 20260509071553 | 49 | 302 | 0.0 | 0.0 | 0.00 | 0.00 | 0.00 | 98 | 1009.2 |
| 20260509071050 | 49 | 302 | 0.0 | 0.0 | 0.00 | 0.00 | 0.00 | 98 | 1009.3 |
| 20260509070547 | 49 | 302 | 0.0 | 0.0 | 0.00 | 0.00 | 0.00 | 98 | 1009.2 |
| 20260509070038 | 49 | 302 | 0.0 | 0.0 | 0.00 | 0.00 | 0.00 | 98 | 1009.3 |
| 20260509065533 | 49 | 302 | 0.0 | 0.0 | 0.00 | 0.00 | 0.00 | 97 | 1009.4 |
| 20260509065030 | 49 | 302 | 0.0 | 0.0 | 0.00 | 0.00 | 0.00 | 97 | 1009.5 |
| 20260509064527 | 49 | 302 | 0.0 | 0.0 | 0.00 | 0.00 | 0.00 | 97 | 1009.5 |
| 20260509064025 | 49 | 302 | 0.0 | 0.0 | 0.00 | 0.00 | 0.00 | 97 | 1009.4 |
| 20260509063520 | 50 | 302 | 0.0 | 0.0 | 0.00 | 0.00 | 0.00 | 97 | 1009.6 |
| 20260509063018 | 50 | 302 | 0.0 | 0.0 | 0.00 | 0.00 | 0.00 | 97 | 1009.4 |
| 20260509062515 | 50 | 302 | 0.0 | 0.0 | 0.00 | 0.00 | 0.00 | 97 | 1009.6 |
| 20260509062013 | 50 | 302 | 0.0 | 0.0 | 0.00 | 0.00 | 0.00 | 97 | 1009.9 |
| 20260509061509 | 50 | 302 | 0.0 | 0.0 | 0.00 | 0.00 | 0.00 | 96 | 1009.9 |
| 20260509061007 | 50 | 302 | 0.0 | 0.0 | 0.00 | 0.00 | 0.00 | 96 | 1010.1 |
| 20260509060504 | 50 | 302 | 0.0 | 0.0 | 0.00 | 0.00 | 0.00 | 96 | 1010.1 |
| 20260509060000 | 51 | 302 | 0.0 | 0.0 | 0.00 | 0.00 | 0.00 | 96 | 1010.1 |
| 20260509055455 | 51 | 302 | 0.0 | 0.0 | 0.00 | 0.00 | 0.00 | 96 | 1010.3 |
| 20260509054952 | 51 | 302 | 0.0 | 0.0 | 0.00 | 0.00 | 0.00 | 96 | 1010.2 |
| 20260509054448 | 51 | 302 | 0.0 | 0.0 | 0.00 | 0.00 | 0.00 | 96 | 1010.3 |
| 20260509053947 | 51 | 302 | 0.0 | 0.0 | 0.00 | 0.00 | 0.00 | 96 | 1010.2 |
| 20260509053444 | 51 | 302 | 0.0 | 0.0 | 0.00 | 0.00 | 0.00 | 96 | 1010.5 |
| 20260509052941 | 51 | 302 | 0.0 | 0.0 | 0.00 | 0.00 | 0.00 | 96 | 1010.4 |
| 20260509052439 | 51 | 302 | 0.0 | 0.0 | 0.00 | 0.00 | 0.00 | 96 | 1010.4 |
| 20260509051937 | 51 | 303 | 0.0 | 1.0 | 0.00 | 0.00 | 0.00 | 96 | 1010.7 |
| 20260509051434 | 51 | 302 | 0.0 | 0.0 | 0.00 | 0.00 | 0.00 | 96 | 1010.5 |
| 20260509050931 | 51 | 302 | 0.0 | 0.0 | 0.00 | 0.00 | 0.00 | 96 | 1010.9 |
| 20260509050427 | 51 | 302 | 0.0 | 0.0 | 0.00 | 0.00 | 0.00 | 96 | 1010.8 |
| 20260509045924 | 51 | 302 | 0.0 | 0.0 | 0.00 | 0.00 | 0.00 | 95 | 1011.0 |
| 20260509045422 | 51 | 302 | 0.0 | 0.0 | 0.00 | 0.00 | 0.00 | 95 | 1010.7 |
| 20260509044918 | 51 | 302 | 0.0 | 0.0 | 0.00 | 0.00 | 0.00 | 95 | 1010.8 |
| 20260509044416 | 51 | 302 | 0.0 | 0.0 | 0.00 | 0.00 | 0.00 | 95 | 1010.8 |
| 20260509043913 | 51 | 302 | 0.0 | 1.0 | 0.00 | 0.00 | 0.00 | 95 | 1010.9 |
| 20260509043409 | 52 | 302 | 0.0 | 0.0 | 0.00 | 0.00 | 0.00 | 94 | 1010.8 |
| 20260509042905 | 52 | 302 | 0.0 | 0.0 | 0.00 | 0.00 | 0.00 | 94 | 1011.0 |
| 20260509042402 | 52 | 302 | 0.0 | 0.0 | 0.00 | 0.00 | 0.00 | 94 | 1011.0 |
| 20260509041858 | 52 | 302 | 0.0 | 0.0 | 0.00 | 0.00 | 0.00 | 94 | 1010.8 |
| 20260509041355 | 52 | 302 | 0.0 | 0.0 | 0.00 | 0.00 | 0.00 | 94 | 1010.8 |
| 20260509040853 | 52 | 303 | 0.0 | 0.0 | 0.00 | 0.00 | 0.00 | 94 | 1010.7 |
| 20260509040351 | 52 | 302 | 0.0 | 0.0 | 0.00 | 0.00 | 0.00 | 94 | 1010.9 |
| 20260509035847 | 52 | 302 | 0.0 | 0.0 | 0.00 | 0.00 | 0.00 | 94 | 1010.9 |
| 20260509035344 | 52 | 302 | 0.0 | 0.0 | 0.00 | 0.00 | 0.00 | 94 | 1011.0 |
| 20260509034840 | 52 | 302 | 0.0 | 0.0 | 0.00 | 0.00 | 0.00 | 94 | 1010.8 |
| 20260509034338 | 52 | 303 | 0.0 | 0.0 | 0.00 | 0.00 | 0.00 | 94 | 1010.8 |
| 20260509033835 | 52 | 302 | 0.0 | 0.0 | 0.00 | 0.00 | 0.00 | 93 | 1010.9 |
| 20260509033332 | 53 | 302 | 0.0 | 0.0 | 0.00 | 0.00 | 0.00 | 93 | 1010.9 |
| 20260509032829 | 53 | 302 | 0.0 | 0.0 | 0.00 | 0.00 | 0.00 | 92 | 1010.9 |
| 20260509032326 | 53 | 302 | 0.0 | 0.0 | 0.00 | 0.00 | 0.00 | 92 | 1010.7 |
| 20260509031824 | 53 | 302 | 0.0 | 0.0 | 0.00 | 0.00 | 0.00 | 92 | 1011.0 |
| 20260509031321 | 53 | 302 | 0.0 | 0.0 | 0.00 | 0.00 | 0.00 | 92 | 1010.7 |
| 20260509030819 | 53 | 302 | 0.0 | 0.0 | 0.00 | 0.00 | 0.00 | 92 | 1010.7 |
| 20260509030317 | 53 | 303 | 0.0 | 1.0 | 0.00 | 0.00 | 0.00 | 92 | 1010.8 |
| 20260509025813 | 53 | 302 | 0.0 | 0.0 | 0.00 | 0.00 | 0.00 | 91 | 1010.9 |
| 20260509025309 | 53 | 302 | 0.0 | 0.0 | 0.00 | 0.00 | 0.00 | 91 | 1010.7 |
| 20260509024804 | 53 | 259 | 0.0 | 0.0 | 0.00 | 0.00 | 0.00 | 91 | 1010.9 |
| 20260509024301 | 53 | 233 | 0.0 | 0.0 | 0.00 | 0.00 | 0.00 | 91 | 1010.8 |
| 20260509023758 | 53 | 233 | 0.0 | 0.0 | 0.00 | 0.00 | 0.00 | 91 | 1010.9 |
| 20260509023255 | 53 | 233 | 0.0 | 0.0 | 0.00 | 0.00 | 0.00 | 91 | 1011.1 |
| 20260509022751 | 54 | 233 | 0.0 | 0.0 | 0.00 | 0.00 | 0.00 | 90 | 1011.2 |
| 20260509022249 | 54 | 233 | 0.0 | 0.0 | 0.00 | 0.00 | 0.00 | 90 | 1011.0 |
| 20260509021746 | 54 | 233 | 0.0 | 0.0 | 0.00 | 0.00 | 0.00 | 90 | 1010.9 |
| 20260509021243 | 54 | 233 | 0.0 | 0.0 | 0.00 | 0.00 | 0.00 | 89 | 1011.1 |
| 20260509020740 | 54 | 233 | 0.0 | 0.0 | 0.00 | 0.00 | 0.00 | 89 | 1011.1 |
| 20260509020238 | 54 | 233 | 0.0 | 0.0 | 0.00 | 0.00 | 0.00 | 89 | 1011.0 |
| 20260509015736 | 55 | 233 | 0.0 | 0.0 | 0.00 | 0.00 | 0.00 | 89 | 1011.1 |
| 20260509015234 | 55 | 233 | 0.0 | 0.0 | 0.00 | 0.00 | 0.00 | 89 | 1011.1 |
| 20260509014730 | 55 | 233 | 0.0 | 0.0 | 0.00 | 0.00 | 0.00 | 87 | 1011.0 |
| 20260509014227 | 55 | 233 | 0.0 | 0.0 | 0.00 | 0.00 | 0.00 | 87 | 1011.2 |
| 20260509013723 | 55 | 233 | 0.0 | 0.0 | 0.00 | 0.00 | 0.00 | 86 | 1011.1 |
| 20260509013219 | 55 | 232 | 0.0 | 0.0 | 0.00 | 0.00 | 0.00 | 85 | 1010.8 |
| 20260509012716 | 55 | 233 | 0.0 | 0.0 | 0.00 | 0.00 | 0.00 | 85 | 1010.9 |
| 20260509012212 | 55 | 233 | 0.0 | 0.0 | 0.00 | 0.00 | 0.00 | 85 | 1010.9 |
| 20260509011710 | 55 | 233 | 0.0 | 0.0 | 0.00 | 0.00 | 0.00 | 85 | 1010.9 |
| 20260509011208 | 56 | 233 | 0.0 | 0.0 | 0.00 | 0.00 | 0.00 | 85 | 1010.8 |
| 20260509010705 | 56 | 233 | 0.0 | 0.0 | 0.00 | 0.00 | 0.00 | 84 | 1010.8 |
| 20260509010201 | 57 | 233 | 0.0 | 0.0 | 0.00 | 0.00 | 0.00 | 83 | 1010.9 |
| 20260509005659 | 57 | 233 | 0.0 | 0.0 | 0.00 | 0.00 | 0.00 | 82 | 1010.7 |
| 20260509005156 | 57 | 233 | 0.0 | 0.0 | 0.00 | 0.00 | 0.00 | 81 | 1010.4 |
| 20260509004651 | 57 | 233 | 0.0 | 0.0 | 0.00 | 0.00 | 0.00 | 81 | 1010.4 |
| 20260509004148 | 58 | 233 | 0.0 | 0.0 | 0.00 | 0.00 | 0.00 | 80 | 1010.5 |
| 20260509003647 | 58 | 233 | 0.0 | 0.0 | 0.00 | 0.00 | 0.00 | 80 | 1010.6 |
| 20260509003144 | 59 | 233 | 0.0 | 0.0 | 0.00 | 0.00 | 0.00 | 79 | 1010.7 |
| 20260509002641 | 59 | 233 | 0.0 | 0.0 | 0.00 | 0.00 | 0.00 | 78 | 1010.6 |
| 20260509002138 | 59 | 233 | 0.0 | 0.0 | 0.00 | 0.00 | 0.00 | 76 | 1010.4 |
| 20260509001636 | 60 | 232 | 0.0 | 0.0 | 0.00 | 0.00 | 0.00 | 74 | 1010.5 |
| 20260509001131 | 60 | 232 | 0.0 | 0.0 | 0.00 | 0.00 | 0.00 | 74 | 1010.7 |
| 20260509000630 | 60 | 232 | 0.0 | 0.0 | 0.00 | 0.00 | 0.00 | 73 | 1010.3 |
| 20260509000126 | 61 | 232 | 0.0 | 0.0 | 0.00 | 0.00 | 0.00 | 73 | 1010.3 |
| 20260508235624 | 61 | 232 | 0.0 | 1.0 | 0.00 | 0.00 | 0.00 | 71 | 1010.1 |
| 20260508235120 | 62 | 232 | 0.0 | 0.0 | 0.00 | 0.00 | 0.00 | 71 | 1010.2 |
| 20260508234618 | 63 | 233 | 0.0 | 0.0 | 0.00 | 0.00 | 0.00 | 69 | 1010.2 |
| 20260508234114 | 63 | 232 | 0.0 | 0.0 | 0.00 | 0.00 | 0.00 | 67 | 1010.2 |
| 20260508233613 | 64 | 232 | 0.0 | 0.0 | 0.00 | 0.00 | 0.00 | 64 | 1010.2 |
| 20260508233110 | 64 | 232 | 0.0 | 0.0 | 0.00 | 0.00 | 0.00 | 58 | 1009.9 |
| 20260508232607 | 65 | 232 | 0.0 | 0.0 | 0.00 | 0.00 | 0.00 | 60 | 1010.4 |
| 20260508232104 | 65 | 232 | 0.0 | 0.0 | 0.00 | 0.00 | 0.00 | 54 | 1010.3 |
| 20260508231602 | 66 | 232 | 0.0 | 0.0 | 0.00 | 0.00 | 0.00 | 52 | 1010.3 |
| 20260508231058 | 66 | 232 | 0.0 | 1.0 | 0.00 | 0.00 | 0.00 | 51 | 1010.4 |
| 20260508230555 | 66 | 241 | 0.0 | 0.0 | 0.00 | 0.00 | 0.00 | 49 | 1010.4 |
| 20260508230051 | 66 | 223 | 0.0 | 1.0 | 0.00 | 0.00 | 0.00 | 49 | 1010.4 |
| 20260508225549 | 66 | 223 | 0.0 | 0.0 | 0.00 | 0.00 | 0.00 | 44 | 1010.4 |
| 20260508225046 | 66 | 222 | 0.0 | 0.0 | 0.00 | 0.00 | 0.00 | 44 | 1010.3 |
| 20260508224544 | 67 | 222 | 0.0 | 0.0 | 0.00 | 0.00 | 0.00 | 46 | 1010.2 |
| 20260508224041 | 67 | 222 | 0.0 | 1.0 | 0.00 | 0.00 | 0.00 | 46 | 1010.4 |
| 20260508223539 | 67 | 246 | 1.0 | 1.0 | 0.00 | 0.00 | 0.00 | 44 | 1010.6 |
| 20260508223035 | 67 | 249 | 0.0 | 1.0 | 0.00 | 0.00 | 0.00 | 41 | 1010.4 |
| 20260508222533 | 67 | 249 | 0.0 | 0.0 | 0.00 | 0.00 | 0.00 | 46 | 1010.4 |
| 20260508222030 | 67 | 249 | 0.0 | 0.0 | 0.00 | 0.00 | 0.00 | 42 | 1010.4 |
| 20260508221526 | 67 | 249 | 0.0 | 0.0 | 0.00 | 0.00 | 0.00 | 41 | 1010.4 |
| 20260508221022 | 68 | 244 | 1.0 | 1.0 | 0.00 | 0.00 | 0.00 | 42 | 1010.1 |
| 20260508220518 | 68 | 237 | 0.0 | 1.0 | 0.00 | 0.00 | 0.00 | 50 | 1010.4 |
| 20260508220015 | 67 | 226 | 0.0 | 0.0 | 0.00 | 0.00 | 0.00 | 48 | 1010.2 |
| 20260508215512 | 68 | 228 | 1.0 | 1.0 | 0.00 | 0.00 | 0.00 | 53 | 1010.0 |
| 20260508215009 | 68 | 235 | 0.0 | 0.0 | 0.00 | 0.00 | 0.00 | 40 | 1009.8 |
| 20260508214506 | 68 | 232 | 1.0 | 2.0 | 0.00 | 0.00 | 0.00 | 44 | 1010.1 |
| 20260508214002 | 69 | 256 | 0.0 | 0.0 | 0.00 | 0.00 | 0.00 | 45 | 1010.0 |
| 20260508213500 | 69 | 256 | 0.0 | 1.0 | 0.00 | 0.00 | 0.00 | 45 | 1010.2 |
| 20260508212955 | 69 | 179 | 1.0 | 1.0 | 0.00 | 0.00 | 0.00 | 44 | 1010.3 |
| 20260508212452 | 69 | 182 | 1.0 | 1.0 | 0.00 | 0.00 | 0.00 | 37 | 1010.2 |
| 20260508211948 | 70 | 274 | 0.0 | 0.0 | 0.00 | 0.00 | 0.00 | 40 | 1010.5 |
| 20260508211443 | 70 | 243 | 1.0 | 2.0 | 0.00 | 0.00 | 0.00 | 40 | 1010.6 |
| 20260508210941 | 69 | 210 | 1.0 | 2.0 | 0.00 | 0.00 | 0.00 | 37 | 1010.5 |
| 20260508210437 | 69 | 253 | 0.0 | 1.0 | 0.00 | 0.00 | 0.00 | 38 | 1010.3 |
| 20260508205934 | 70 | 262 | 1.0 | 1.0 | 0.00 | 0.00 | 0.00 | 34 | 1010.4 |
| 20260508205431 | 70 | 247 | 1.0 | 1.0 | 0.00 | 0.00 | 0.00 | 34 | 1010.4 |
| 20260508204927 | 70 | 248 | 0.0 | 1.0 | 0.00 | 0.00 | 0.00 | 34 | 1010.2 |
| 20260508204425 | 70 | 104 | 1.0 | 2.0 | 0.00 | 0.00 | 0.00 | 30 | 1010.5 |
| 20260508203920 | 71 | 33 | 1.0 | 1.0 | 0.00 | 0.00 | 0.00 | 33 | 1010.6 |
| 20260508203416 | 71 | 272 | 2.0 | 2.0 | 0.00 | 0.00 | 0.00 | 36 | 1010.6 |
| 20260508202912 | 71 | 259 | 1.0 | 1.0 | 0.00 | 0.00 | 0.00 | 33 | 1010.6 |
| 20260508202410 | 71 | 331 | 1.0 | 1.0 | 0.00 | 0.00 | 0.00 | 29 | 1010.8 |
| 20260508201907 | 71 | 234 | 1.0 | 1.0 | 0.00 | 0.00 | 0.00 | 37 | 1010.7 |
| 20260508201403 | 71 | 184 | 2.0 | 2.0 | 0.00 | 0.00 | 0.00 | 31 | 1011.0 |
| 20260508200900 | 71 | 108 | 0.0 | 1.0 | 0.00 | 0.00 | 0.00 | 32 | 1011.3 |
| 20260508200357 | 72 | 225 | 2.0 | 2.0 | 0.00 | 0.00 | 0.00 | 39 | 1011.3 |
| 20260508195852 | 72 | 72 | 3.0 | 3.0 | 0.00 | 0.00 | 0.00 | 32 | 1011.3 |
| 20260508195349 | 72 | 211 | 0.0 | 1.0 | 0.00 | 0.00 | 0.00 | 31 | 1011.2 |
| 20260508194845 | 73 | 267 | 1.0 | 1.0 | 0.00 | 0.00 | 0.00 | 39 | 1011.3 |
| 20260508194343 | 72 | 263 | 1.0 | 1.0 | 0.00 | 0.00 | 0.00 | 30 | 1011.3 |
| 20260508193840 | 71 | 221 | 1.0 | 2.0 | 0.00 | 0.00 | 0.00 | 35 | 1011.4 |
| 20260508193336 | 72 | 238 | 3.0 | 3.0 | 0.00 | 0.00 | 0.00 | 32 | 1011.4 |
| 20260508192832 | 71 | 241 | 1.0 | 2.0 | 0.00 | 0.00 | 0.00 | 32 | 1011.5 |
| 20260508192330 | 72 | 232 | 1.0 | 1.0 | 0.00 | 0.00 | 0.00 | 29 | 1011.5 |
| 20260508191827 | 72 | 227 | 1.0 | 2.0 | 0.00 | 0.00 | 0.00 | 29 | 1011.6 |
| 20260508191324 | 72 | 239 | 1.0 | 1.0 | 0.00 | 0.00 | 0.00 | 34 | 1011.7 |
| 20260508190821 | 72 | 252 | 1.0 | 1.0 | 0.00 | 0.00 | 0.00 | 33 | 1011.7 |
| 20260508190318 | 72 | 260 | 2.0 | 2.0 | 0.00 | 0.00 | 0.00 | 33 | 1011.9 |
| 20260508185814 | 72 | 109 | 3.0 | 3.0 | 0.00 | 0.00 | 0.00 | 33 | 1012.2 |
| 20260508185312 | 71 | 239 | 1.0 | 1.0 | 0.00 | 0.00 | 0.00 | 36 | 1012.1 |
| 20260508184809 | 71 | 277 | 1.0 | 1.0 | 0.00 | 0.00 | 0.00 | 34 | 1012.0 |
| 20260508184306 | 71 | 216 | 2.0 | 2.0 | 0.00 | 0.00 | 0.00 | 39 | 1012.0 |
| 20260508183803 | 71 | 244 | 1.0 | 1.0 | 0.00 | 0.00 | 0.00 | 33 | 1012.0 |
| 20260508183259 | 71 | 284 | 1.0 | 1.0 | 0.00 | 0.00 | 0.00 | 32 | 1012.0 |
| 20260508182755 | 70 | 230 | 0.0 | 1.0 | 0.00 | 0.00 | 0.00 | 30 | 1012.3 |